Miscellaneous Local Product
Issued by NWS Hastings, NE

Home | Current Version | Previous Version | Graphics & Text | Print | Product List | Glossary On
Versions: 1 2 3 4 5 6 7 8 9 10 11 12 13 14 15 16 17 18 19 20 21 22 23 24 25 26 27 28 29 30 31 32 33 34 35 36 37 38 39 40 41 42 43 44 45 46 47 48 49 50
000
AXUS43 KGID 270802
MISGRI

GID CWA HOURLY WEATHER ROUNDUP
NATIONAL WEATHER SERVICE HASTINGS NE
200 AM CST MON FEB 27 2017

NOTE: "FAIR" INDICATES FEW OR NO CLOUDS BELOW 12,000 FEET WITH NO
SIGNIFICANT WEATHER AND/OR OBSTRUCTIONS TO VISIBILITY.

...SOUTH CENTRAL NEBRASKA...

CITY           SKY/WX    TMP DP  RH WIND       PRES   REMARKS
GRAND ISLAND   CLEAR     28  17  63 S6        29.94S WCI  22
HASTINGS       CLEAR     25  15  66 SE5       29.94F WCI  19
KEARNEY        CLEAR     21  16  79 CALM      29.93S
ORD            CLEAR     15  11  83 CALM      29.92R
YORK           CLEAR     27  23  86 S7        29.96S WCI  19
AURORA         CLEAR     25  16  67 CALM      29.95S
LEXINGTON      CLEAR     20  15  81 CALM      29.91S
HOLDREGE       CLEAR     24  11  56 SE3       29.91S
HEBRON         CLEAR     22  18  82 CALM      29.97S

...NEBRASKA PANHANDLE...

CITY           SKY/WX    TMP DP  RH WIND       PRES   REMARKS
CHADRON        CLOUDY     9   3  77 CALM      29.76F
ALLIANCE       CLOUDY     9   3  77 SE7       29.78F WCI  -2
SCOTTSBLUFF    CLOUDY    16   7  67 E8        29.78F WCI   5
SIDNEY         CLOUDY    20  11  68 S12       29.80S WCI   8

...WESTERN AND NORTH CENTRAL NEBRASKA...

CITY           SKY/WX    TMP DP  RH WIND       PRES   REMARKS
VALENTINE      CLOUDY     7   2  80 SW7       29.85R WCI  -5
AINSWORTH      CLEAR     19  11  72 SW9       29.85S WCI   8
ONEILL         CLOUDY    13   9  81 SW5       29.90S WCI   6
BROKEN BOW     CLOUDY    14   9  80 N3        29.90S
IMPERIAL       CLEAR     20  11  68 S6        29.86S WCI  12
NORTH PLATTE   CLEAR     16  10  77 CALM      29.89R
MCCOOK         CLEAR     22  10  60 CALM      29.89S

...EASTERN NEBRASKA...

CITY           SKY/WX    TMP DP  RH WIND       PRES   REMARKS
NORFOLK        CLEAR     21  16  81 CALM      29.93S
SO SIOUX CITY  CLEAR     19  15  84 E9        29.96F WCI   8
TEKAMAH        PTCLDY    21  19  92 CALM      29.99S
COLUMBUS       CLEAR     25  18  74 CALM      29.96S
ALBION         CLEAR     19  15  83 CALM      29.93F
OMAHA EPPLEY   CLEAR     26  19  74 SE6       29.99F WCI  19
OFFUTT AFB     CLEAR     20  18  88 CALM      29.98F
MILLARD        CLEAR     27  25  91 CALM      29.99F
LINCOLN        CLEAR     20  17  88 CALM      30.00S
NEBRASKA CITY  CLEAR     31  17  57 CALM      29.99S
BEATRICE       CLEAR     25  19  76 CALM      29.98F
FALLS CITY     CLEAR     24  19  81 CALM      30.01R

...NORTHERN KANSAS...

CITY           SKY/WX    TMP DP  RH WIND       PRES   REMARKS
GOODLAND       CLEAR     22   9  57 S14       29.83F WCI   9
HILL CITY      CLEAR     18   8  65 SE3       29.93R
PHILLIPSBURG   CLEAR     18  10  73 CALM      29.94R
SMITH CENTER   CLEAR     21  12  68 E9        29.94R WCI  11
HAYS           CLEAR     25   9  50 NE3       29.93S
RUSSELL        CLEAR     28  15  58 SE12      29.92S WCI  18
CONCORDIA      CLEAR     24  13  62 E5        29.96F WCI  18
SALINA         CLEAR     26  19  74 SE3       29.98R
TOPEKA         PTCLDY    28  27  96 CALM      30.03R FOG



USA.gov is the U.S. government's official web portal to all federal, state and local government web resources and services.